Regional Weather Roundup
Issued by NWS Cleveland, OH

Home | Current Version | Previous Version | Text Only | Print | Product List | Glossary Off
Versions: 1 2 3 4 5 6 7 8 9 10 11 12 13 14 15 16 17 18 19 20 21 22 23 24 25 26 27 28 29 30 31 32 33 34 35 36 37 38 39 40 41 42 43 44 45 46 47 48 49 50

000
ASUS41 KCLE 220800
RWRCLE
OHIO REGIONAL WEATHER ROUNDUP
NATIONAL WEATHER SERVICE WILMINGTON, OH
300 AM EST MON DEC 22 2014

NOTE: "FAIR" INDICATES FEW OR NO CLOUDS BELOW 12,000 FEET WITH NO
SIGNIFICANT WEATHER AND/OR OBSTRUCTIONS TO VISIBILITY.

OHZ001>008-015>018-024>027-034-035-043-044-220900-
   NORTHWEST OHIO

CITY           SKY/WX    TMP DP  RH WIND       PRES   REMARKS
DEFIANCE       PTCLDY    26  22  84 E6        30.11F WCI  19
FINDLAY        MOCLDY    26  22  84 E8        30.09F WCI  18
TOLEDO EXPRESS MOCLDY    24  20  84 E5        30.12F FOG     WCI  18
TOLEDO METCALF MOCLDY    25  20  81 E5        30.13F HAZE    WCI  19
LIMA           MOCLDY    28  22  78 SE9       30.08S HAZE    WCI  19
$$

OHZ009>014-019>023-028>033-038-089-220900-
   NORTHEAST OHIO

CITY           SKY/WX    TMP DP  RH WIND       PRES   REMARKS
CLE-HOPKINS    MOCLDY    24  19  81 CALM      30.17F
CLE-LAKEFRONT  PTCLDY    28  21  75 SE3       30.15F
CUY CO. ARPT   NOT AVBL
LORAIN-ELYRIA  PTCLDY    22  19  89 SE5       30.14F FOG     WCI  16
ASHTABULA      PTCLDY    24  20  84 SE5       30.17F WCI  18
AKRON-CANTON   PTCLDY    24  19  81 E6        30.12F HAZE    WCI  17
WOOSTER        NOT AVBL
MANSFIELD      CLEAR     23  20  88 SE7       30.09F WCI  15
YOUNGSTOWN     PTCLDY    24  20  84 E9        30.13F WCI  14
$$

OHZ042-051>053-060>062-070>072-077>081-220900-
  SOUTHWEST OHIO

CITY           SKY/WX    TMP DP  RH WIND       PRES   REMARKS
CINC-COVINGTON CLOUDY    31  24  75 E8        30.04F WCI  23
CINC-LUNKEN    CLOUDY    25  24  96 CALM      30.09F
HAMILTON       CLOUDY    27  25  92 CALM      30.08F
DAYTON         NOT AVBL
WRIGHT-PAT AFB NOT AVBL
DAYTON GENERAL MOCLDY    29  25  85 E7        30.06F WCI  22
WILMINGTON     PTCLDY    25  21  85 E3        30.06F FOG
$$

OHZ036-037-039>041-045>050-054>059-063>069-073>076-082>088-220900-
  CENTRAL AND SOUTHEAST OHIO

CITY           SKY/WX    TMP DP  RH WIND       PRES   REMARKS
COLUMBUS       CLEAR     27  21  78 E6        30.09F WCI  20
OSU AIRPORT    PTCLDY    22  19  89 CALM      30.09F FOG
BOLTON FIELD   NOT AVBL
RICKENBACK AFB NOT AVBL
NEWARK         CLEAR     24  20  84 NE3       30.10F FOG
MARION         PTCLDY    26  21  81 SE7       30.10F HAZE    WCI  18
LANCASTER      CLEAR     24  18  77 CALM      30.09F HAZE
ZANESVILLE     CLEAR     22  20  92 CALM      30.11F FOG
NEW PHILLY     CLEAR     20  17  88 CALM      30.14F
$$



USA.gov is the U.S. government's official web portal to all federal, state and local government web resources and services.